Time,TemperatureF,DewpointF,PressureIn,WindDirection,WindDirectionDegrees,WindSpeedMPH,WindSpeedGustMPH,Humidity,HourlyPrecipIn,Conditions,Clouds,dailyrainin,SoftwareType,DateUTC
2013-10-12 00:01:00,76.3,66.6,29.98,ENE,66,0.0,2.0,72,0.00,,,0.00,meteohub,2013-10-12 04:01:00,
2013-10-12 00:02:00,76.3,66.2,29.98,ENE,66,0.0,2.0,71,0.00,,,0.00,meteohub,2013-10-12 04:02:00,
2013-10-12 00:03:00,76.3,66.6,29.98,ENE,66,0.0,2.0,72,0.00,,,0.00,meteohub,2013-10-12 04:03:00,
2013-10-12 00:08:00,76.1,66.4,29.98,ENE,66,0.0,1.0,72,0.00,,,0.00,meteohub,2013-10-12 04:08:00,
2013-10-12 00:13:00,75.9,66.2,29.98,East,93,1.0,0.0,72,0.00,,,0.00,meteohub,2013-10-12 04:13:00,
2013-10-12 00:18:00,75.7,66.0,29.98,East,100,0.0,1.0,72,0.00,,,0.00,meteohub,2013-10-12 04:18:00,
2013-10-12 00:23:00,75.6,66.4,29.98,East,96,0.0,1.0,73,0.00,,,0.00,meteohub,2013-10-12 04:23:00,
2013-10-12 00:28:00,75.4,66.2,29.98,East,96,0.0,1.0,73,0.00,,,0.00,meteohub,2013-10-12 04:28:00,
2013-10-12 00:33:00,75.4,66.6,29.98,East,96,0.0,0.0,74,0.00,,,0.00,meteohub,2013-10-12 04:33:00,
2013-10-12 00:38:00,75.0,66.2,29.98,East,96,0.0,0.0,74,0.00,,,0.00,meteohub,2013-10-12 04:38:00,
2013-10-12 00:43:00,74.8,66.0,29.98,East,96,0.0,0.0,74,0.00,,,0.00,meteohub,2013-10-12 04:43:00,
2013-10-12 00:48:00,74.7,65.8,29.97,East,96,0.0,0.0,74,0.00,,,0.00,meteohub,2013-10-12 04:48:00,
2013-10-12 00:53:00,74.5,66.0,29.97,East,96,0.0,0.0,75,0.00,,,0.00,meteohub,2013-10-12 04:53:00,
2013-10-12 00:58:00,74.1,65.7,29.97,East,96,0.0,0.0,75,0.00,,,0.00,meteohub,2013-10-12 04:58:00,
2013-10-12 01:03:00,73.9,65.5,29.97,East,96,0.0,0.0,75,0.00,,,0.00,meteohub,2013-10-12 05:03:00,
2013-10-12 01:08:00,73.6,65.5,29.97,East,96,0.0,0.0,76,0.00,,,0.00,meteohub,2013-10-12 05:08:00,
2013-10-12 01:13:00,73.2,65.1,29.97,East,96,0.0,0.0,76,0.00,,,0.00,meteohub,2013-10-12 05:13:00,
2013-10-12 01:18:00,73.0,65.5,29.97,East,96,0.0,0.0,77,0.00,,,0.00,meteohub,2013-10-12 05:18:00,
2013-10-12 01:23:00,72.9,65.7,29.97,NNE,24,0.0,0.0,78,0.00,,,0.00,meteohub,2013-10-12 05:23:00,
2013-10-12 01:28:00,72.7,65.8,29.97,NNE,24,0.0,1.0,79,0.00,,,0.00,meteohub,2013-10-12 05:28:00,
2013-10-12 01:33:00,72.3,65.8,29.97,NNE,24,0.0,1.0,80,0.00,,,0.00,meteohub,2013-10-12 05:33:00,
2013-10-12 01:38:00,72.0,65.5,29.97,NNE,24,0.0,1.0,80,0.00,,,0.00,meteohub,2013-10-12 05:38:00,
2013-10-12 01:43:00,71.8,65.7,29.97,NNE,24,0.0,0.0,81,0.00,,,0.00,meteohub,2013-10-12 05:43:00,
2013-10-12 01:48:00,71.4,66.0,29.97,NNE,24,0.0,0.0,83,0.00,,,0.00,meteohub,2013-10-12 05:48:00,
2013-10-12 01:53:00,71.1,65.7,29.97,NNE,24,0.0,0.0,83,0.00,,,0.00,meteohub,2013-10-12 05:53:00,
2013-10-12 01:58:00,70.9,65.5,29.97,NNE,24,0.0,0.0,83,0.00,,,0.00,meteohub,2013-10-12 05:58:00,
2013-10-12 02:04:00,70.5,65.5,29.97,NNE,24,0.0,0.0,84,0.00,,,0.00,meteohub,2013-10-12 06:04:00,
2013-10-12 02:10:00,70.3,65.7,29.96,NNE,24,0.0,0.0,85,0.00,,,0.00,meteohub,2013-10-12 06:10:00,
2013-10-12 02:15:00,70.2,65.5,29.97,NNE,24,0.0,0.0,85,0.00,,,0.00,meteohub,2013-10-12 06:15:00,
2013-10-12 02:20:00,70.0,65.7,29.96,NNE,24,0.0,0.0,86,0.00,,,0.00,meteohub,2013-10-12 06:20:00,
2013-10-12 02:25:00,69.6,65.3,29.96,NNE,24,0.0,0.0,86,0.00,,,0.00,meteohub,2013-10-12 06:25:00,
2013-10-12 02:30:00,69.4,65.1,29.96,NNE,24,0.0,0.0,86,0.00,,,0.00,meteohub,2013-10-12 06:30:00,
2013-10-12 02:35:00,69.4,65.5,29.96,NNE,24,0.0,0.0,87,0.00,,,0.00,meteohub,2013-10-12 06:35:00,
2013-10-12 02:40:00,69.3,65.3,29.96,NNE,24,0.0,0.0,87,0.00,,,0.00,meteohub,2013-10-12 06:40:00,
2013-10-12 02:45:00,68.9,64.9,29.96,NNE,24,0.0,0.0,87,0.00,,,0.00,meteohub,2013-10-12 06:45:00,
2013-10-12 02:50:00,68.7,64.9,29.96,NNE,24,0.0,0.0,88,0.00,,,0.00,meteohub,2013-10-12 06:50:00,
2013-10-12 02:55:00,68.5,64.8,29.95,NNE,24,0.0,0.0,88,0.00,,,0.00,meteohub,2013-10-12 06:55:00,
2013-10-12 03:00:00,68.4,64.6,29.95,NNE,24,0.0,0.0,88,0.00,,,0.00,meteohub,2013-10-12 07:00:00,
2013-10-12 03:05:00,68.4,64.9,29.95,NNE,24,0.0,0.0,89,0.00,,,0.00,meteohub,2013-10-12 07:05:00,
2013-10-12 03:10:00,68.2,64.8,29.95,NNE,24,0.0,0.0,89,0.00,,,0.00,meteohub,2013-10-12 07:10:00,
2013-10-12 03:15:00,68.0,64.9,29.96,NNE,24,0.0,0.0,90,0.00,,,0.00,meteohub,2013-10-12 07:15:00,
2013-10-12 03:20:00,67.8,64.8,29.96,NNE,24,0.0,0.0,90,0.00,,,0.00,meteohub,2013-10-12 07:20:00,
2013-10-12 03:25:00,67.6,64.9,29.96,NNE,24,0.0,0.0,91,0.00,,,0.00,meteohub,2013-10-12 07:25:00,
2013-10-12 03:30:00,67.6,64.9,29.96,NNE,24,0.0,0.0,91,0.00,,,0.00,meteohub,2013-10-12 07:30:00,
2013-10-12 03:35:00,67.5,64.8,29.95,NNE,24,0.0,0.0,91,0.00,,,0.00,meteohub,2013-10-12 07:35:00,
2013-10-12 03:40:00,67.6,65.3,29.95,NNE,24,0.0,0.0,92,0.00,,,0.00,meteohub,2013-10-12 07:40:00,
2013-10-12 03:45:00,67.6,65.3,29.95,NNE,24,0.0,0.0,92,0.00,,,0.00,meteohub,2013-10-12 07:45:00,
2013-10-12 03:50:00,67.5,65.3,29.95,NNE,24,0.0,0.0,93,0.00,,,0.00,meteohub,2013-10-12 07:50:00,
2013-10-12 03:56:00,67.6,65.5,29.95,NNE,24,0.0,0.0,93,0.00,,,0.00,meteohub,2013-10-12 07:56:00,
2013-10-12 04:01:00,67.5,65.3,29.95,NNE,24,0.0,0.0,93,0.00,,,0.00,meteohub,2013-10-12 08:01:00,
2013-10-12 04:06:00,67.5,65.3,29.95,NNE,24,0.0,0.0,93,0.00,,,0.00,meteohub,2013-10-12 08:06:00,
2013-10-12 04:11:00,67.5,65.7,29.95,NNE,24,0.0,0.0,94,0.00,,,0.00,meteohub,2013-10-12 08:11:00,
2013-10-12 04:16:00,67.5,65.7,29.95,NNE,24,0.0,0.0,94,0.00,,,0.00,meteohub,2013-10-12 08:16:00,
2013-10-12 04:21:00,67.5,65.7,29.95,NNE,24,0.0,0.0,94,0.00,,,0.00,meteohub,2013-10-12 08:21:00,
2013-10-12 04:26:00,67.5,65.7,29.95,NNE,24,0.0,0.0,94,0.00,,,0.00,meteohub,2013-10-12 08:26:00,
2013-10-12 04:31:00,67.5,65.7,29.95,NNE,24,0.0,0.0,94,0.00,,,0.00,meteohub,2013-10-12 08:31:00,
2013-10-12 04:36:00,67.5,66.0,29.95,NNE,24,0.0,0.0,95,0.00,,,0.00,meteohub,2013-10-12 08:36:00,
2013-10-12 04:41:00,67.6,66.2,29.96,NNE,24,0.0,0.0,95,0.00,,,0.00,meteohub,2013-10-12 08:41:00,
2013-10-12 04:46:00,67.5,66.0,29.96,NNE,24,0.0,0.0,95,0.00,,,0.00,meteohub,2013-10-12 08:46:00,
2013-10-12 04:51:00,67.5,66.0,29.96,NNE,24,0.0,0.0,95,0.00,,,0.00,meteohub,2013-10-12 08:51:00,
2013-10-12 04:56:00,67.6,66.2,29.96,NNE,24,0.0,0.0,95,0.00,,,0.00,meteohub,2013-10-12 08:56:00,
2013-10-12 05:01:00,67.6,66.2,29.96,NNE,24,0.0,0.0,95,0.00,,,0.00,meteohub,2013-10-12 09:01:00,
2013-10-12 05:06:00,67.6,66.2,29.96,NNE,24,0.0,0.0,95,0.00,,,0.00,meteohub,2013-10-12 09:06:00,
2013-10-12 05:11:00,67.5,66.0,29.96,NNE,24,0.0,0.0,95,0.00,,,0.00,meteohub,2013-10-12 09:11:00,
2013-10-12 05:16:00,67.5,66.0,29.96,NNE,24,0.0,0.0,95,0.00,,,0.00,meteohub,2013-10-12 09:16:00,
2013-10-12 05:21:00,67.6,66.4,29.96,NNE,24,0.0,0.0,96,0.00,,,0.00,meteohub,2013-10-12 09:21:00,
2013-10-12 05:26:00,67.6,66.4,29.96,NNE,24,0.0,0.0,96,0.00,,,0.00,meteohub,2013-10-12 09:26:00,
2013-10-12 05:31:00,67.5,66.0,29.96,NNE,24,0.0,0.0,95,0.00,,,0.00,meteohub,2013-10-12 09:31:00,
2013-10-12 05:36:00,67.5,66.0,29.97,NNE,24,0.0,0.0,95,0.00,,,0.00,meteohub,2013-10-12 09:36:00,
2013-10-12 05:41:00,67.5,66.0,29.97,NNE,24,0.0,0.0,95,0.00,,,0.00,meteohub,2013-10-12 09:41:00,
2013-10-12 05:46:00,67.3,65.8,29.97,NNE,24,0.0,0.0,95,0.00,,,0.00,meteohub,2013-10-12 09:46:00,
2013-10-12 05:51:00,67.3,65.8,29.97,NNE,24,0.0,0.0,95,0.00,,,0.00,meteohub,2013-10-12 09:51:00,
2013-10-12 05:56:00,67.1,65.7,29.97,NNE,24,0.0,0.0,95,0.00,,,0.00,meteohub,2013-10-12 09:56:00,
2013-10-12 06:01:00,66.9,65.7,29.97,NNE,24,0.0,0.0,96,0.00,,,0.00,meteohub,2013-10-12 10:01:00,
2013-10-12 06:06:00,66.9,65.7,29.98,NNE,24,0.0,0.0,96,0.00,,,0.00,meteohub,2013-10-12 10:06:00,
2013-10-12 06:11:00,66.7,65.5,29.98,NNE,24,0.0,0.0,96,0.00,,,0.00,meteohub,2013-10-12 10:11:00,
2013-10-12 06:16:00,66.7,65.5,29.98,NNE,24,0.0,0.0,96,0.00,,,0.00,meteohub,2013-10-12 10:16:00,
2013-10-12 06:21:00,66.6,65.1,29.98,NNE,24,0.0,0.0,95,0.00,,,0.00,meteohub,2013-10-12 10:21:00,
2013-10-12 06:26:00,66.6,65.3,29.98,NNE,24,0.0,0.0,96,0.00,,,0.00,meteohub,2013-10-12 10:26:00,
2013-10-12 06:31:00,66.6,65.3,29.98,NNE,24,0.0,0.0,96,0.00,,,0.00,meteohub,2013-10-12 10:31:00,
2013-10-12 06:36:00,66.7,65.5,29.98,NNE,24,0.0,0.0,96,0.00,,,0.00,meteohub,2013-10-12 10:36:00,
2013-10-12 06:41:00,66.7,65.5,29.98,NNE,24,0.0,0.0,96,0.00,,,0.00,meteohub,2013-10-12 10:41:00,
2013-10-12 06:46:00,66.7,65.5,29.98,NNE,24,0.0,0.0,96,0.00,,,0.00,meteohub,2013-10-12 10:46:00,
2013-10-12 06:51:00,66.7,65.5,29.99,NNE,24,0.0,0.0,96,0.00,,,0.00,meteohub,2013-10-12 10:51:00,
2013-10-12 06:56:00,66.7,65.5,29.99,NNE,24,0.0,0.0,96,0.00,,,0.00,meteohub,2013-10-12 10:56:00,
2013-10-12 07:01:00,66.6,65.3,29.99,NNE,24,0.0,0.0,96,0.00,,,0.00,meteohub,2013-10-12 11:01:00,
2013-10-12 07:06:00,66.6,65.3,29.99,NNE,24,0.0,0.0,96,0.00,,,0.00,meteohub,2013-10-12 11:06:00,
2013-10-12 07:11:00,66.6,65.3,29.99,NNE,24,0.0,0.0,96,0.00,,,0.00,meteohub,2013-10-12 11:11:00,
2013-10-12 07:16:00,66.4,65.1,29.99,NNE,24,0.0,0.0,96,0.00,,,0.00,meteohub,2013-10-12 11:16:00,
2013-10-12 07:21:00,66.2,64.9,29.99,NNE,24,0.0,0.0,96,0.00,,,0.00,meteohub,2013-10-12 11:21:00,
2013-10-12 07:26:00,66.0,64.8,29.99,NNE,24,0.0,0.0,96,0.00,,,0.00,meteohub,2013-10-12 11:26:00,
2013-10-12 07:31:00,66.4,65.5,29.99,NNE,24,0.0,0.0,97,0.00,,,0.00,meteohub,2013-10-12 11:31:00,
2013-10-12 07:36:00,66.2,65.3,29.99,NNE,24,0.0,0.0,97,0.00,,,0.00,meteohub,2013-10-12 11:36:00,
2013-10-12 07:41:00,66.0,64.8,29.99,NNE,24,0.0,0.0,96,0.00,,,0.00,meteohub,2013-10-12 11:41:00,
2013-10-12 07:46:00,66.4,65.5,30.00,NNE,24,0.0,0.0,97,0.00,,,0.00,meteohub,2013-10-12 11:46:00,
2013-10-12 07:51:00,66.6,65.7,30.00,NNE,24,0.0,0.0,97,0.00,,,0.00,meteohub,2013-10-12 11:51:00,
2013-10-12 07:56:00,66.7,66.2,30.00,NNE,24,0.0,0.0,98,0.00,,,0.00,meteohub,2013-10-12 11:56:00,
2013-10-12 08:02:00,66.9,66.4,30.00,NNE,24,0.0,0.0,98,0.00,,,0.00,meteohub,2013-10-12 12:02:00,
2013-10-12 08:07:00,67.5,66.9,30.00,NNE,24,0.0,0.0,98,0.00,,,0.00,meteohub,2013-10-12 12:07:00,
2013-10-12 08:12:00,67.6,67.1,30.00,NNE,24,0.0,0.0,98,0.00,,,0.00,meteohub,2013-10-12 12:12:00,
2013-10-12 08:17:00,67.8,67.3,30.00,NNE,24,0.0,0.0,98,0.00,,,0.00,meteohub,2013-10-12 12:17:00,
2013-10-12 08:22:00,68.2,67.6,30.00,NNE,24,0.0,0.0,98,0.00,,,0.00,meteohub,2013-10-12 12:22:00,
2013-10-12 08:27:00,68.4,67.8,30.01,NNE,24,0.0,0.0,98,0.00,,,0.00,meteohub,2013-10-12 12:27:00,
2013-10-12 08:32:00,68.7,68.2,30.01,NNE,24,0.0,0.0,98,0.00,,,0.00,meteohub,2013-10-12 12:32:00,
2013-10-12 08:37:00,69.1,68.5,30.01,NNE,24,0.0,0.0,98,0.00,,,0.00,meteohub,2013-10-12 12:37:00,
2013-10-12 08:42:00,69.6,69.1,30.01,NNE,24,0.0,0.0,98,0.00,,,0.00,meteohub,2013-10-12 12:42:00,
2013-10-12 08:47:00,70.3,69.8,30.01,NNE,24,0.0,0.0,98,0.00,,,0.00,meteohub,2013-10-12 12:47:00,
2013-10-12 08:52:00,71.1,70.5,30.01,NNE,24,0.0,0.0,98,0.00,,,0.00,meteohub,2013-10-12 12:52:00,
2013-10-12 08:56:00,71.8,71.2,30.01,NNE,24,0.0,0.0,98,0.00,,,0.00,meteohub,2013-10-12 12:56:00,
2013-10-12 09:02:00,72.1,70.7,30.01,NNE,24,0.0,2.0,95,0.00,,,0.00,meteohub,2013-10-12 13:02:00,
2013-10-12 09:07:00,73.0,70.9,30.01,NNE,24,0.0,2.0,93,0.00,,,0.00,meteohub,2013-10-12 13:07:00,
2013-10-12 09:12:00,74.5,70.7,30.02,NNE,24,0.0,2.0,88,0.00,,,0.00,meteohub,2013-10-12 13:12:00,
2013-10-12 09:17:00,75.9,70.3,30.02,NNE,24,0.0,0.0,83,0.00,,,0.00,meteohub,2013-10-12 13:17:00,
2013-10-12 09:22:00,77.2,69.8,30.02,NE,39,0.0,3.0,78,0.00,,,0.00,meteohub,2013-10-12 13:22:00,
2013-10-12 09:26:00,78.4,70.2,30.02,NNE,33,0.0,3.0,76,0.00,,,0.00,meteohub,2013-10-12 13:26:00,
2013-10-12 09:31:00,79.3,70.7,30.02,NE,38,1.0,3.0,75,0.00,,,0.00,meteohub,2013-10-12 13:31:00,
2013-10-12 09:36:00,80.1,70.2,30.02,NW,319,0.0,3.0,72,0.00,,,0.00,meteohub,2013-10-12 13:36:00,
2013-10-12 09:41:00,80.6,70.7,30.02,NNW,343,1.0,3.0,72,0.00,,,0.00,meteohub,2013-10-12 13:41:00,
2013-10-12 09:46:00,81.3,70.2,30.02,NW,316,0.0,3.0,69,0.00,,,0.00,meteohub,2013-10-12 13:46:00,
2013-10-12 09:51:00,81.9,70.3,30.02,NW,320,0.0,3.0,68,0.00,,,0.00,meteohub,2013-10-12 13:51:00,
2013-10-12 09:56:00,82.2,69.8,30.02,WNW,283,0.0,3.0,66,0.00,,,0.00,meteohub,2013-10-12 13:56:00,
2013-10-12 10:02:00,82.6,70.0,30.02,NNE,33,1.0,3.0,66,0.00,,,0.00,meteohub,2013-10-12 14:02:00,
2013-10-12 10:07:00,83.1,69.6,30.03,NE,36,0.0,3.0,64,0.00,,,0.00,meteohub,2013-10-12 14:07:00,
2013-10-12 10:12:00,83.5,69.1,30.03,West,279,3.0,3.0,62,0.00,,,0.00,meteohub,2013-10-12 14:12:00,
2013-10-12 10:17:00,83.1,68.4,30.02,WNW,295,1.0,5.0,61,0.00,,,0.00,meteohub,2013-10-12 14:17:00,
2013-10-12 10:22:00,82.9,68.5,30.02,WNW,284,0.0,5.0,62,0.00,,,0.00,meteohub,2013-10-12 14:22:00,
2013-10-12 10:27:00,83.1,69.3,30.02,NNW,338,0.0,5.0,63,0.00,,,0.00,meteohub,2013-10-12 14:27:00,
2013-10-12 10:32:00,83.3,68.4,30.02,NNW,336,1.0,4.0,61,0.00,,,0.00,meteohub,2013-10-12 14:32:00,
2013-10-12 10:37:00,83.3,69.4,30.02,North,351,1.0,3.0,63,0.00,,,0.00,meteohub,2013-10-12 14:37:00,
2013-10-12 10:41:00,83.7,69.3,30.02,NW,320,0.0,3.0,62,0.00,,,0.00,meteohub,2013-10-12 14:41:00,
2013-10-12 10:46:00,83.8,68.9,30.02,NNW,330,1.0,3.0,61,0.00,,,0.00,meteohub,2013-10-12 14:46:00,
2013-10-12 10:51:00,83.5,69.6,30.02,NW,311,0.0,2.0,63,0.00,,,0.00,meteohub,2013-10-12 14:51:00,
2013-10-12 10:56:00,84.0,68.7,30.02,WNW,300,0.0,2.0,60,0.00,,,0.00,meteohub,2013-10-12 14:56:00,
2013-10-12 11:02:00,84.6,69.1,30.02,North,0,0.0,3.0,60,0.00,,,0.00,meteohub,2013-10-12 15:02:00,
2013-10-12 11:07:00,85.3,69.8,30.02,WNW,296,1.0,3.0,60,0.00,,,0.00,meteohub,2013-10-12 15:07:00,
2013-10-12 11:12:00,85.5,69.4,30.02,NNW,336,0.0,4.0,59,0.00,,,0.00,meteohub,2013-10-12 15:12:00,
2013-10-12 11:17:00,85.3,68.9,30.02,NNE,31,0.0,4.0,58,0.00,,,0.00,meteohub,2013-10-12 15:17:00,
2013-10-12 11:21:00,84.9,68.9,30.02,North,350,0.0,4.0,59,0.00,,,0.00,meteohub,2013-10-12 15:21:00,
2013-10-12 11:27:00,84.9,68.9,30.02,NW,325,0.0,2.0,59,0.00,,,0.00,meteohub,2013-10-12 15:27:00,
2013-10-12 11:32:00,84.7,68.9,30.02,NNE,17,0.0,4.0,59,0.00,,,0.00,meteohub,2013-10-12 15:32:00,
2013-10-12 11:37:00,84.4,68.5,30.02,NNW,336,2.0,4.0,59,0.00,,,0.00,meteohub,2013-10-12 15:37:00,
2013-10-12 11:42:00,84.2,69.3,30.02,North,5,0.0,4.0,61,0.00,,,0.00,meteohub,2013-10-12 15:42:00,
2013-10-12 11:47:00,83.8,68.9,30.02,NE,35,1.0,3.0,61,0.00,,,0.00,meteohub,2013-10-12 15:47:00,
2013-10-12 11:52:00,83.7,67.8,30.02,NE,53,0.0,2.0,59,0.00,,,0.00,meteohub,2013-10-12 15:52:00,
2013-10-12 11:57:00,83.5,68.2,30.02,NNE,21,0.0,2.0,60,0.00,,,0.00,meteohub,2013-10-12 15:57:00,
2013-10-12 12:02:00,83.3,68.4,30.02,NE,38,0.0,2.0,61,0.00,,,0.00,meteohub,2013-10-12 16:02:00,
2013-10-12 12:07:00,83.3,68.4,30.01,NNE,16,1.0,2.0,61,0.00,,,0.00,meteohub,2013-10-12 16:07:00,
2013-10-12 12:12:00,83.3,68.9,30.01,NE,46,0.0,3.0,62,0.00,,,0.00,meteohub,2013-10-12 16:12:00,
2013-10-12 12:17:00,82.9,68.2,30.01,NNE,30,0.0,3.0,61,0.00,,,0.00,meteohub,2013-10-12 16:17:00,
2013-10-12 12:22:00,82.8,68.4,30.01,NNE,14,0.0,3.0,62,0.00,,,0.00,meteohub,2013-10-12 16:22:00,
2013-10-12 12:27:00,83.7,68.7,30.01,ESE,109,2.0,4.0,61,0.00,,,0.00,meteohub,2013-10-12 16:27:00,
2013-10-12 12:32:00,84.4,68.9,30.01,ESE,115,1.0,5.0,60,0.00,,,0.00,meteohub,2013-10-12 16:32:00,
2013-10-12 12:37:00,84.0,68.7,30.01,NE,35,4.0,5.0,60,0.00,,,0.00,meteohub,2013-10-12 16:37:00,
2013-10-12 12:42:00,84.4,68.9,30.01,SSE,148,0.0,5.0,60,0.00,,,0.00,meteohub,2013-10-12 16:42:00,
2013-10-12 12:47:00,84.9,68.9,30.00,NE,48,0.0,5.0,59,0.00,,,0.00,meteohub,2013-10-12 16:47:00,
2013-10-12 12:52:00,84.9,68.9,30.00,SE,134,0.0,5.0,59,0.00,,,0.00,meteohub,2013-10-12 16:52:00,
2013-10-12 12:57:00,84.7,69.3,30.00,NE,54,2.0,5.0,60,0.00,,,0.00,meteohub,2013-10-12 16:57:00,
2013-10-12 13:02:00,85.3,69.3,30.00,NE,55,0.0,5.0,59,0.00,,,0.00,meteohub,2013-10-12 17:02:00,
2013-10-12 13:07:00,85.5,69.1,30.00,ESE,105,0.0,6.0,58,0.00,,,0.00,meteohub,2013-10-12 17:07:00,
2013-10-12 13:12:00,85.8,69.3,30.00,SE,141,2.0,6.0,58,0.00,,,0.00,meteohub,2013-10-12 17:12:00,
2013-10-12 13:17:00,86.2,69.1,30.00,North,0,0.0,6.0,57,0.00,,,0.00,meteohub,2013-10-12 17:17:00,
2013-10-12 13:22:00,86.2,70.2,29.99,NNE,32,0.0,5.0,59,0.00,,,0.00,meteohub,2013-10-12 17:22:00,
2013-10-12 13:27:00,86.5,69.4,29.99,East,100,0.0,7.0,57,0.00,,,0.00,meteohub,2013-10-12 17:27:00,
2013-10-12 13:32:00,86.2,69.1,29.99,East,93,0.0,7.0,57,0.00,,,0.00,meteohub,2013-10-12 17:32:00,
2013-10-12 13:37:00,85.6,69.1,29.99,East,96,2.0,7.0,58,0.00,,,0.00,meteohub,2013-10-12 17:37:00,
2013-10-12 13:42:00,85.6,69.6,29.99,NE,44,2.0,6.0,59,0.00,,,0.00,meteohub,2013-10-12 17:42:00,
2013-10-12 13:47:00,85.8,69.3,29.99,SE,138,1.0,6.0,58,0.00,,,0.00,meteohub,2013-10-12 17:47:00,
2013-10-12 13:52:00,85.8,68.9,29.98,East,80,0.0,8.0,57,0.00,,,0.00,meteohub,2013-10-12 17:52:00,
2013-10-12 13:57:00,86.0,69.4,29.98,ENE,67,0.0,8.0,58,0.00,,,0.00,meteohub,2013-10-12 17:57:00,
2013-10-12 14:02:00,86.0,69.4,29.98,East,101,1.0,8.0,58,0.00,,,0.00,meteohub,2013-10-12 18:02:00,
2013-10-12 14:07:00,86.0,70.0,29.98,NNW,341,2.0,7.0,59,0.00,,,0.00,meteohub,2013-10-12 18:07:00,
2013-10-12 14:12:00,86.0,69.4,29.98,NE,51,4.0,7.0,58,0.00,,,0.00,meteohub,2013-10-12 18:12:00,
2013-10-12 14:17:00,85.8,69.8,29.98,ENE,61,0.0,8.0,59,0.00,,,0.00,meteohub,2013-10-12 18:17:00,
2013-10-12 14:22:00,86.0,69.4,29.97,NE,36,1.0,8.0,58,0.00,,,0.00,meteohub,2013-10-12 18:22:00,
2013-10-12 14:27:00,85.6,69.1,29.97,ENE,72,1.0,8.0,58,0.00,,,0.00,meteohub,2013-10-12 18:27:00,
2013-10-12 14:32:00,85.5,69.4,29.97,South,179,1.0,8.0,59,0.00,,,0.00,meteohub,2013-10-12 18:32:00,
2013-10-12 14:37:00,85.5,69.4,29.97,NNE,32,4.0,8.0,59,0.00,,,0.00,meteohub,2013-10-12 18:37:00,
2013-10-12 14:42:00,85.5,70.0,29.97,SSE,152,0.0,7.0,60,0.00,,,0.00,meteohub,2013-10-12 18:42:00,
2013-10-12 14:47:00,85.8,70.3,29.97,NE,51,2.0,7.0,60,0.00,,,0.00,meteohub,2013-10-12 18:47:00,
2013-10-12 14:52:00,86.0,70.0,29.97,ESE,104,1.0,7.0,59,0.00,,,0.00,meteohub,2013-10-12 18:52:00,
2013-10-12 14:57:00,85.8,69.8,29.97,NNE,20,2.0,6.0,59,0.00,,,0.00,meteohub,2013-10-12 18:57:00,
2013-10-12 15:02:00,85.5,70.0,29.97,NNE,32,2.0,8.0,60,0.00,,,0.00,meteohub,2013-10-12 19:02:00,
2013-10-12 15:07:00,85.5,70.5,29.97,NE,53,1.0,8.0,61,0.00,,,0.00,meteohub,2013-10-12 19:07:00,
2013-10-12 15:12:00,85.6,70.7,29.97,SSE,147,4.0,8.0,61,0.00,,,0.00,meteohub,2013-10-12 19:12:00,
2013-10-12 15:17:00,85.6,70.2,29.97,North,350,0.0,7.0,60,0.00,,,0.00,meteohub,2013-10-12 19:17:00,
2013-10-12 15:22:00,85.6,70.2,29.97,NE,35,2.0,6.0,60,0.00,,,0.00,meteohub,2013-10-12 19:22:00,
2013-10-12 15:27:00,85.6,70.2,29.97,North,355,6.0,6.0,60,0.00,,,0.00,meteohub,2013-10-12 19:27:00,
2013-10-12 15:32:00,85.6,70.2,29.97,ENE,65,0.0,6.0,60,0.00,,,0.00,meteohub,2013-10-12 19:32:00,
2013-10-12 15:37:00,85.8,70.3,29.97,North,0,0.0,6.0,60,0.00,,,0.00,meteohub,2013-10-12 19:37:00,
2013-10-12 15:42:00,86.0,71.1,29.97,ESE,112,7.0,7.0,61,0.00,,,0.00,meteohub,2013-10-12 19:42:00,
2013-10-12 15:47:00,85.6,70.2,29.97,ENE,64,2.0,8.0,60,0.00,,,0.00,meteohub,2013-10-12 19:47:00,
2013-10-12 15:52:00,85.5,69.4,29.97,ESE,102,1.0,8.0,59,0.00,,,0.00,meteohub,2013-10-12 19:52:00,
2013-10-12 15:57:00,84.7,69.8,29.97,NE,34,3.0,8.0,61,0.00,,,0.00,meteohub,2013-10-12 19:57:00,
2013-10-12 16:02:00,83.8,70.0,29.97,ESE,116,0.0,6.0,63,0.00,,,0.00,meteohub,2013-10-12 20:02:00,
2013-10-12 16:07:00,83.5,69.6,29.97,NE,52,2.0,6.0,63,0.00,,,0.00,meteohub,2013-10-12 20:07:00,
2013-10-12 16:12:00,82.9,69.1,29.97,NNE,28,0.0,5.0,63,0.00,,,0.00,meteohub,2013-10-12 20:12:00,
2013-10-12 16:17:00,82.9,69.1,29.97,ENE,58,0.0,5.0,63,0.00,,,0.00,meteohub,2013-10-12 20:17:00,
2013-10-12 16:22:00,82.9,69.1,29.97,North,355,0.0,4.0,63,0.00,,,0.00,meteohub,2013-10-12 20:22:00,
2013-10-12 16:27:00,83.5,70.0,29.97,NE,40,1.0,4.0,64,0.00,,,0.00,meteohub,2013-10-12 20:27:00,
2013-10-12 16:32:00,83.7,69.3,29.97,SE,128,1.0,6.0,62,0.00,,,0.00,meteohub,2013-10-12 20:32:00,
2013-10-12 16:37:00,83.8,68.9,29.97,East,84,1.0,6.0,61,0.00,,,0.00,meteohub,2013-10-12 20:37:00,
2013-10-12 16:42:00,84.0,69.1,29.97,ENE,65,0.0,6.0,61,0.00,,,0.00,meteohub,2013-10-12 20:42:00,
2013-10-12 16:47:00,84.4,69.4,29.97,NNE,17,3.0,6.0,61,0.00,,,0.00,meteohub,2013-10-12 20:47:00,
2013-10-12 16:52:00,84.6,69.1,29.97,NE,49,3.0,5.0,60,0.00,,,0.00,meteohub,2013-10-12 20:52:00,
2013-10-12 16:56:00,84.2,70.2,29.97,ENE,68,2.0,8.0,63,0.00,,,0.00,meteohub,2013-10-12 20:56:00,
2013-10-12 17:02:00,84.0,70.0,29.97,NNE,32,0.0,8.0,63,0.00,,,0.00,meteohub,2013-10-12 21:02:00,
2013-10-12 17:07:00,84.0,69.6,29.97,NNW,343,2.0,8.0,62,0.00,,,0.00,meteohub,2013-10-12 21:07:00,
2013-10-12 17:12:00,83.8,70.0,29.97,NNE,28,6.0,6.0,63,0.00,,,0.00,meteohub,2013-10-12 21:12:00,
2013-10-12 17:17:00,84.0,69.6,29.97,NE,43,1.0,6.0,62,0.00,,,0.00,meteohub,2013-10-12 21:17:00,
2013-10-12 17:22:00,83.8,70.0,29.97,ESE,109,1.0,6.0,63,0.00,,,0.00,meteohub,2013-10-12 21:22:00,
2013-10-12 17:27:00,83.8,70.0,29.97,ENE,67,0.0,6.0,63,0.00,,,0.00,meteohub,2013-10-12 21:27:00,
2013-10-12 17:32:00,83.5,70.0,29.97,ENE,57,0.0,6.0,64,0.00,,,0.00,meteohub,2013-10-12 21:32:00,
2013-10-12 17:37:00,83.3,69.8,29.97,East,93,0.0,6.0,64,0.00,,,0.00,meteohub,2013-10-12 21:37:00,
2013-10-12 17:42:00,83.1,70.2,29.97,East,84,1.0,6.0,65,0.00,,,0.00,meteohub,2013-10-12 21:42:00,
2013-10-12 17:47:00,82.9,70.0,29.97,East,98,3.0,6.0,65,0.00,,,0.00,meteohub,2013-10-12 21:47:00,
2013-10-12 17:52:00,82.6,70.0,29.98,ENE,66,0.0,6.0,66,0.00,,,0.00,meteohub,2013-10-12 21:52:00,
2013-10-12 17:57:00,82.6,70.0,29.98,NNE,24,2.0,6.0,66,0.00,,,0.00,meteohub,2013-10-12 21:57:00,
2013-10-12 18:02:00,82.6,70.0,29.98,East,83,0.0,5.0,66,0.00,,,0.00,meteohub,2013-10-12 22:02:00,
2013-10-12 18:07:00,82.2,69.3,29.98,NE,48,1.0,4.0,65,0.00,,,0.00,meteohub,2013-10-12 22:07:00,
2013-10-12 18:12:00,82.0,69.6,29.98,NE,46,0.0,5.0,66,0.00,,,0.00,meteohub,2013-10-12 22:12:00,
2013-10-12 18:17:00,81.7,69.3,29.98,East,98,0.0,5.0,66,0.00,,,0.00,meteohub,2013-10-12 22:17:00,
2013-10-12 18:22:00,81.3,68.9,29.99,SE,125,0.0,5.0,66,0.00,,,0.00,meteohub,2013-10-12 22:22:00,
2013-10-12 18:27:00,81.1,69.6,29.98,ENE,77,1.0,3.0,68,0.00,,,0.00,meteohub,2013-10-12 22:27:00,
2013-10-12 18:32:00,80.8,69.3,29.98,ENE,65,0.0,3.0,68,0.00,,,0.00,meteohub,2013-10-12 22:32:00,
2013-10-12 18:36:00,80.4,69.3,29.99,NNE,22,0.0,3.0,69,0.00,,,0.00,meteohub,2013-10-12 22:36:00,
2013-10-12 18:41:00,80.2,69.6,29.99,ENE,71,0.0,3.0,70,0.00,,,0.00,meteohub,2013-10-12 22:41:00,
2013-10-12 18:46:00,80.1,69.8,29.99,NNE,24,0.0,2.0,71,0.00,,,0.00,meteohub,2013-10-12 22:46:00,
2013-10-12 18:51:00,79.7,69.4,29.99,NE,54,0.0,5.0,71,0.00,,,0.00,meteohub,2013-10-12 22:51:00,
2013-10-12 18:56:00,79.5,69.6,29.99,NE,40,1.0,5.0,72,0.00,,,0.00,meteohub,2013-10-12 22:56:00,
2013-10-12 19:01:00,79.3,69.4,29.99,ENE,64,0.0,5.0,72,0.00,,,0.00,meteohub,2013-10-12 23:01:00,
2013-10-12 19:07:00,79.2,69.8,29.99,East,90,0.0,1.0,73,0.00,,,0.00,meteohub,2013-10-12 23:07:00,
2013-10-12 19:12:00,79.0,69.6,29.99,SE,124,0.0,2.0,73,0.00,,,0.00,meteohub,2013-10-12 23:12:00,
2013-10-12 19:17:00,79.0,70.0,29.99,NE,44,0.0,2.0,74,0.00,,,0.00,meteohub,2013-10-12 23:17:00,
2013-10-12 19:22:00,79.0,70.0,29.99,ENE,60,1.0,2.0,74,0.00,,,0.00,meteohub,2013-10-12 23:22:00,
2013-10-12 19:27:00,79.0,70.3,29.99,North,5,0.0,3.0,75,0.00,,,0.00,meteohub,2013-10-12 23:27:00,
2013-10-12 19:32:00,78.8,69.8,29.99,NE,49,1.0,3.0,74,0.00,,,0.00,meteohub,2013-10-12 23:32:00,
2013-10-12 19:37:00,78.6,70.0,29.99,NE,53,0.0,3.0,75,0.00,,,0.00,meteohub,2013-10-12 23:37:00,
2013-10-12 19:42:00,78.6,70.0,29.99,ENE,59,0.0,3.0,75,0.00,,,0.00,meteohub,2013-10-12 23:42:00,
2013-10-12 19:47:00,78.6,70.0,29.99,ENE,71,0.0,3.0,75,0.00,,,0.00,meteohub,2013-10-12 23:47:00,
2013-10-12 19:52:00,78.4,69.8,30.00,East,93,0.0,3.0,75,0.00,,,0.00,meteohub,2013-10-12 23:52:00,
2013-10-12 19:57:00,78.4,69.8,30.00,East,91,0.0,2.0,75,0.00,,,0.00,meteohub,2013-10-12 23:57:00,
2013-10-12 20:02:00,78.4,69.8,30.00,NE,51,0.0,2.0,75,0.00,,,0.00,meteohub,2013-10-13 00:02:00,
2013-10-12 20:06:00,78.3,69.6,30.00,NE,51,0.0,2.0,75,0.00,,,0.00,meteohub,2013-10-13 00:06:00,
2013-10-12 20:12:00,78.3,69.6,30.00,East,79,0.0,1.0,75,0.00,,,0.00,meteohub,2013-10-13 00:12:00,
2013-10-12 20:17:00,78.3,69.6,30.00,East,92,0.0,2.0,75,0.00,,,0.00,meteohub,2013-10-13 00:17:00,
2013-10-12 20:22:00,78.3,69.6,30.00,ENE,73,1.0,2.0,75,0.00,,,0.00,meteohub,2013-10-13 00:22:00,
2013-10-12 20:27:00,78.3,69.6,30.00,ENE,73,0.0,2.0,75,0.00,,,0.00,meteohub,2013-10-13 00:27:00,
2013-10-12 20:32:00,78.1,69.1,30.00,NE,46,0.0,2.0,74,0.00,,,0.00,meteohub,2013-10-13 00:32:00,
2013-10-12 20:37:00,77.9,68.9,30.00,NE,53,0.0,2.0,74,0.00,,,0.00,meteohub,2013-10-13 00:37:00,
2013-10-12 20:42:00,77.9,68.9,30.00,NE,46,0.0,2.0,74,0.00,,,0.00,meteohub,2013-10-13 00:42:00,
2013-10-12 20:47:00,77.7,69.1,30.00,ENE,61,0.0,1.0,75,0.00,,,0.00,meteohub,2013-10-13 00:47:00,
2013-10-12 20:52:00,77.7,68.7,30.01,ENE,60,0.0,1.0,74,0.00,,,0.00,meteohub,2013-10-13 00:52:00,
2013-10-12 20:57:00,77.7,69.1,30.01,ENE,60,0.0,1.0,75,0.00,,,0.00,meteohub,2013-10-13 00:57:00,
2013-10-12 21:02:00,77.5,68.9,30.01,ENE,60,0.0,1.0,75,0.00,,,0.00,meteohub,2013-10-13 01:02:00,
2013-10-12 21:07:00,77.4,68.9,30.01,ENE,60,0.0,1.0,75,0.00,,,0.00,meteohub,2013-10-13 01:07:00,
2013-10-12 21:12:00,77.2,69.1,30.01,ENE,60,0.0,0.0,76,0.00,,,0.00,meteohub,2013-10-13 01:12:00,
2013-10-12 21:17:00,77.0,68.9,30.01,ENE,60,0.0,0.0,76,0.00,,,0.00,meteohub,2013-10-13 01:17:00,
2013-10-12 21:22:00,76.8,69.1,30.01,ENE,60,0.0,0.0,77,0.00,,,0.00,meteohub,2013-10-13 01:22:00,
2013-10-12 21:27:00,76.6,69.3,30.01,ENE,60,0.0,0.0,78,0.00,,,0.00,meteohub,2013-10-13 01:27:00,
2013-10-12 21:32:00,76.8,69.4,30.02,South,170,0.0,1.0,78,0.00,,,0.00,meteohub,2013-10-13 01:32:00,
2013-10-12 21:37:00,76.8,69.4,30.02,South,170,0.0,1.0,78,0.00,,,0.00,meteohub,2013-10-13 01:37:00,
2013-10-12 21:42:00,77.0,69.6,30.02,South,170,0.0,1.0,78,0.00,,,0.00,meteohub,2013-10-13 01:42:00,
2013-10-12 21:47:00,77.2,69.4,30.02,South,170,0.0,1.0,77,0.00,,,0.00,meteohub,2013-10-13 01:47:00,
2013-10-12 21:52:00,77.4,69.3,30.02,SE,127,0.0,2.0,76,0.00,,,0.00,meteohub,2013-10-13 01:52:00,
2013-10-12 21:57:00,77.4,68.9,30.02,SE,127,0.0,2.0,75,0.00,,,0.00,meteohub,2013-10-13 01:57:00,
2013-10-12 22:02:00,77.4,68.9,30.02,ESE,119,0.0,2.0,75,0.00,,,0.00,meteohub,2013-10-13 02:02:00,
2013-10-12 22:07:00,77.4,68.9,30.02,ESE,115,0.0,2.0,75,0.00,,,0.00,meteohub,2013-10-13 02:07:00,
2013-10-12 22:12:00,77.4,68.9,30.02,ESE,115,0.0,2.0,75,0.00,,,0.00,meteohub,2013-10-13 02:12:00,
2013-10-12 22:17:00,77.2,68.7,30.02,ESE,115,0.0,0.0,75,0.00,,,0.00,meteohub,2013-10-13 02:17:00,
2013-10-12 22:22:00,77.0,68.5,30.03,NNE,26,0.0,2.0,75,0.00,,,0.00,meteohub,2013-10-13 02:22:00,
2013-10-12 22:27:00,76.8,68.4,30.03,NNE,26,0.0,2.0,75,0.00,,,0.00,meteohub,2013-10-13 02:27:00,
2013-10-12 22:32:00,76.6,68.2,30.03,NNE,26,0.0,2.0,75,0.00,,,0.00,meteohub,2013-10-13 02:32:00,
2013-10-12 22:37:00,76.6,68.2,30.03,NNE,26,0.0,0.0,75,0.00,,,0.00,meteohub,2013-10-13 02:37:00,
2013-10-12 22:42:00,76.6,68.2,30.03,NNE,26,0.0,0.0,75,0.00,,,0.00,meteohub,2013-10-13 02:42:00,
2013-10-12 22:47:00,76.6,68.2,30.03,NE,53,0.0,1.0,75,0.00,,,0.00,meteohub,2013-10-13 02:47:00,
2013-10-12 22:52:00,76.8,68.4,30.03,NE,53,0.0,1.0,75,0.00,,,0.00,meteohub,2013-10-13 02:52:00,
2013-10-12 22:57:00,77.2,68.2,30.03,East,92,0.0,2.0,74,0.00,,,0.00,meteohub,2013-10-13 02:57:00,
2013-10-12 23:02:00,77.4,68.4,30.03,East,97,0.0,2.0,74,0.00,,,0.00,meteohub,2013-10-13 03:02:00,
2013-10-12 23:07:00,77.4,68.0,30.03,East,97,0.0,2.0,73,0.00,,,0.00,meteohub,2013-10-13 03:07:00,
2013-10-12 23:12:00,77.5,68.2,30.03,East,97,0.0,1.0,73,0.00,,,0.00,meteohub,2013-10-13 03:12:00,
2013-10-12 23:17:00,77.4,68.0,30.03,East,97,0.0,1.0,73,0.00,,,0.00,meteohub,2013-10-13 03:17:00,
2013-10-12 23:22:00,77.2,67.8,30.03,East,97,0.0,0.0,73,0.00,,,0.00,meteohub,2013-10-13 03:22:00,
2013-10-12 23:27:00,77.0,68.0,30.03,East,97,0.0,0.0,74,0.00,,,0.00,meteohub,2013-10-13 03:27:00,
2013-10-12 23:32:00,76.8,67.8,30.03,East,97,0.0,0.0,74,0.00,,,0.00,meteohub,2013-10-13 03:32:00,
2013-10-12 23:37:00,77.0,68.0,30.02,East,97,0.0,0.0,74,0.00,,,0.00,meteohub,2013-10-13 03:37:00,
2013-10-12 23:42:00,77.2,68.2,30.02,East,97,0.0,0.0,74,0.00,,,0.00,meteohub,2013-10-13 03:42:00,
2013-10-12 23:47:00,77.0,68.0,30.02,East,97,0.0,0.0,74,0.00,,,0.00,meteohub,2013-10-13 03:47:00,
2013-10-12 23:52:00,76.8,67.8,30.02,East,97,0.0,1.0,74,0.00,,,0.00,meteohub,2013-10-13 03:52:00,
2013-10-12 23:57:00,76.6,67.6,30.02,East,97,0.0,1.0,74,0.00,,,0.00,meteohub,2013-10-13 03:57:00,